Tracking 35334 objects as of 13-Sep-2026
HD Live streaming from Space Station
objects crossing your sky now

SL-4 R/B


SL-4 R/B is no longer on orbit


NORAD ID: 33341
Int'l Code: 2008-043B
Launch date: September 10, 2008
Source: Commonwealth of Independent States (former USSR) (CIS)
Launch site: TYURATAM MISSILE AND SPACE COMPLEX (TTMTR)
Decay date: 2008-09-14

Note: This is a ROCKET BODY
Your satellite tracking list
Your tracking list is empty




NASA's NSSDC Master Catalog

Two Line Element Set (TLE):
1 33341U 08043B   08258.06217083  .09180418  12700-4  12856-3 0  9999
2 33341 051.6099 279.4595 0012476 067.6377 293.5680 16.48012554   530
Source of the keplerian elements: AFSPC